Memphis, TN

10:16 AM CDT on March 30, 2017 (GMT -0500)
Memphis International

Weather History for KMEM - May, 2014

Change the Weather History Date:

Sunday, May 25, 2014

  Actual Average Record
Temperature  
Mean Temperature 79 °F 74 °F  
Max Temperature 87 °F 84 °F 95 °F (1962)
Min Temperature 71 °F 65 °F 44 °F (1925)
Degree Days  
Heating Degree Days 0 0  
Month to date heating degree days 49 17  
Since 1 July heating degree days 3484 2962  
Cooling Degree Days 14 9  
Month to date cooling degree days 184 164  
Year to date cooling degree days 240 259  
Growing Degree Days 30 (Base 50)    
Moisture  
Dew Point 65 °F    
Average Humidity 62    
Maximum Humidity 79    
Minimum Humidity 45    
Precipitation  
Precipitation T in 0.15 in 2.20 in (1946)
Month to date precipitation 2.59 4.32  
Year to date precipitation 24.23 23.35  
Snow  
Snow 0.00 in 0.00 in - ()
Month to date snowfall 0.0 0.0  
Since 1 July snowfall 0.8 3.8  
Snow Depth 0.00 in    
Sea Level Pressure  
Sea Level Pressure 30.05 in    
Wind  
Wind Speed 6 mph (SSW)    
Max Wind Speed 16 mph    
Max Gust Speed 22 mph    
Visibility 10 miles    
Events      
T = Trace of Precipitation, MM = Missing Value Source: NWS Daily Summary

Daily Weather History Graph

Daily Weather History Graph

Search for Another Location

Airport or City:

Trip Planner

Search our weather history database for the weather conditions in past years. The results will help you decide how hot, cold, wet, or windy it might be!

Date:

Astronomy

May. 25, 2014 Rise Set
Actual Time 5:49 AM CDT 8:04 PM CDT
Civil Twilight 5:21 AM CDT 8:33 PM CDT
Nautical Twilight 4:45 AM CDT 9:08 PM CDT
Astronomical Twilight 4:07 AM CDT 9:46 PM CDT
Moon 3:46 AM CDT (5/25) 5:11 PM CDT (5/25)
Length of Visible Light 15h 11m
Length of Day
14h 14m
Waning Crescent, 10% of the Moon is Illuminated
May 25
Waning Crescent
May 28
New
Jun 5
First Quarter
Jun 12
Full
Jun 19
Last Quarter

Hourly Weather History & Observations

Time (CDT) Temp. Heat Index Dew Point Humidity Pressure Visibility Wind Dir Wind Speed Gust Speed Precip Events Conditions
12:54 AM 77.0 °F - 64.4 °F 65% 30.03 in 10.0 mi South 3.5 mph - N/A   Overcast
1:54 AM 76.3 °F - 62.8 °F 63% 30.01 in 10.0 mi SSW 5.8 mph - N/A   Mostly Cloudy
2:54 AM 75.7 °F - 61.7 °F 62% 30.01 in 10.0 mi SSW 9.2 mph - N/A   Scattered Clouds
3:54 AM 74.7 °F - 61.5 °F 63% 30.02 in 10.0 mi SSW 5.8 mph - 0.00 in   Overcast
4:54 AM 73.9 °F - 63.0 °F 68% 30.02 in 10.0 mi Calm Calm - N/A   Overcast
5:54 AM 72.0 °F - 63.0 °F 73% 30.04 in 10.0 mi South 6.9 mph - N/A   Overcast
6:54 AM 73.0 °F - 64.0 °F 73% 30.06 in 10.0 mi South 3.5 mph - N/A   Overcast
7:54 AM 73.0 °F - 64.9 °F 76% 30.07 in 10.0 mi South 5.8 mph - N/A   Overcast
8:54 AM 75.9 °F - 64.9 °F 69% 30.09 in 10.0 mi SW 3.5 mph - N/A   Mostly Cloudy
9:54 AM 78.8 °F - 66.2 °F 65% 30.10 in 10.0 mi South 5.8 mph - N/A   Scattered Clouds
10:54 AM 82.9 °F 85.8 °F 68.0 °F 60% 30.08 in 10.0 mi WSW 10.4 mph 20.7 mph N/A   Scattered Clouds
11:54 AM 84.0 °F 87.0 °F 68.0 °F 58% 30.08 in 10.0 mi WSW 8.1 mph - N/A   Scattered Clouds
12:54 PM 84.0 °F 85.8 °F 64.9 °F 53% 30.06 in 10.0 mi SW 8.1 mph - N/A   Scattered Clouds
1:54 PM 86.0 °F 86.8 °F 63.0 °F 46% 30.04 in 10.0 mi SW 11.5 mph 20.7 mph N/A   Mostly Cloudy
2:54 PM 84.0 °F 85.8 °F 64.9 °F 53% 30.04 in 10.0 mi SW 12.7 mph 21.9 mph N/A   Mostly Cloudy
3:54 PM 82.0 °F 84.5 °F 66.9 °F 60% 30.04 in 10.0 mi NW 9.2 mph - 0.00 in   Mostly Cloudy
4:54 PM 82.0 °F 84.1 °F 66.0 °F 58% 30.04 in 10.0 mi West 6.9 mph - N/A   Mostly Cloudy
5:54 PM 82.9 °F 84.6 °F 64.9 °F 54% 30.03 in 10.0 mi SW 4.6 mph - N/A   Mostly Cloudy
6:54 PM 80.1 °F 82.1 °F 66.0 °F 62% 30.02 in 10.0 mi South 5.8 mph - N/A   Mostly Cloudy
7:54 PM 78.1 °F - 63.0 °F 60% 30.02 in 10.0 mi SSE 4.6 mph - N/A   Scattered Clouds
8:54 PM 73.9 °F - 64.0 °F 71% 30.03 in 10.0 mi South 4.6 mph - N/A   Scattered Clouds
9:54 PM 75.0 °F - 64.0 °F 69% 30.05 in 10.0 mi South 3.5 mph - N/A   Partly Cloudy
10:54 PM 73.0 °F - 64.9 °F 76% 30.06 in 10.0 mi South 3.5 mph - N/A   Partly Cloudy
11:54 PM 72.0 °F - 64.9 °F 78% 30.05 in 10.0 mi South 4.6 mph - N/A   Partly Cloudy